Regional Weather Roundup
Issued by NWS

Home | Current Version | Previous Version | Graphics & Text | Print | Product List | Glossary On
Versions: 1 2 3 4 5 6 7 8 9 10 11 12 13 14 15 16 17 18 19 20 21 22 23 24 25 26 27 28 29 30 31 32 33 34 35 36 37 38 39 40 41 42 43 44 45 46 47 48 49 50
955
ASUS43 KDMX 251606
RWRIA

WEATHER ROUNDUP FOR IOWA
NATIONAL WEATHER SERVICE DES MOINES IA
1100 AM CDT SUN JUN 25 2017

NOTE: "FAIR" INDICATES FEW OR NO CLOUDS BELOW 12,000 FEET WITH NO
SIGNIFICANT WEATHER AND/OR OBSTRUCTIONS TO VISIBILITY.

* - THESE STATIONS ARE NOT NWS STATIONS...THUS NOT UNDER NWS
QUALITY CONTROL.  THEY ALSO DO NOT REPORT WEATHER SUCH
AS PRECIPITATION OR FOG.

IAZ001>003-012>014-020>022-031>034-043>046-251700-
   NORTHWEST IOWA

CITY           SKY/WX    TMP DP  RH WIND       PRES   REMARKS
CARROLL *      MOSUNNY   64  43  45 NW17G28   30.28S
CHEROKEE *     PTSUNNY   64  46  53 NW13G22   30.29R
DENISON *      MOSUNNY   64  41  42 NW16G23   30.31S
LE MARS *      MOSUNNY   64  43  45 NW17G24   30.31S
ORANGE CITY *  MOSUNNY   63  46  55 NW17G25   30.30R
SHELDON *      PTSUNNY   61  43  51 NW17      30.27S
SIOUX CITY     MOSUNNY   66  44  45 NW15G24   30.31S
SPENCER        MOSUNNY   64  42  44 NW21G28   30.26S
STORM LAKE *     N/A     63  41  45 NW20G28   30.28S
$$

IAZ055>058-069>071-079>083-090>094-251700-
   SOUTHWEST IOWA

CITY           SKY/WX    TMP DP  RH WIND       PRES   REMARKS
ATLANTIC *     SUNNY     66  43  42 NW18G28   30.30S
AUDUBON *      MOSUNNY   64  45  48 NW15      30.31R
CLARINDA *     SUNNY     68  43  40 N14G25    30.33S
COUNCIL BLFS * MOSUNNY   66  43  42 NW14G23   30.32S
CRESTON *      SUNNY     66  41  39 NW23G30   30.30S
HARLAN  *      SUNNY     64  45  48 NW15G28   30.34S
LAMONI         SUNNY     68  45  43 NW17      30.28S
RED OAK *      SUNNY     66  45  45 N15G22    30.32S
SHENANDOAH *   SUNNY     68  43  40 N13G20    30.32F
$$

IAZ047>049-059>061-072>074-084-251700-
   CENTRAL IOWA

CITY           SKY/WX    TMP DP  RH WIND       PRES   REMARKS
AMES           SUNNY     66  46  48 W20G28    30.24S
ANKENY *       MOSUNNY   64  46  52 NW17G29   30.26R
BOONE *        SUNNY     64  45  48 NW20      30.24S
CHARITON *     MOSUNNY   68  45  42 NW17G25   30.26R
DES MOINES     MOSUNNY   68  43  40 NW16G25   30.25R
GRINNELL*      PTSUNNY   64  47  52 W21G26    30.23S
KNOXVILLE *    MOSUNNY   66  45  45 NW21      30.23S
MARSHALLTOWN   PTSUNNY   63  48  58 NW20G29   30.21S
NEWTON *       MOSUNNY   66  46  48 NW16G31   30.23S
PELLA *        MOSUNNY   66  45  46 NW18G30   30.24S
PERRY *          N/A     65  42  43 NW15G23   30.27R
$$

IAZ004>006-015-016-023>025-035-036-251700-
   NORTH CENTRAL IOWA

CITY           SKY/WX    TMP DP  RH WIND       PRES   REMARKS
ALGONA *       SUNNY     63  37  39 NW21G30   30.24S
CLARION *        N/A     63  46  55 NW20G31   30.23S
ESTHERVILLE    MOSUNNY   61  44  53 NW20G28   30.25R
FORT DODGE *   SUNNY     64  45  48 NW14G21   30.26S
MASON CITY     PTSUNNY   61  46  57 NW23G30   30.22S
FOREST CITY *  PTSUNNY   61  37  41 NW18      30.21S
WEBSTER CITY * SUNNY     63  43  48 NW22      30.22S
IOWA FALLS *   CLOUDY    62  47  58 W18G24    30.23S
$$

IAZ007>011-017>019-026>030-037>042-050>054-066-251700-
   NORTHEAST IOWA

CITY           SKY/WX    TMP DP  RH WIND       PRES   REMARKS
CEDAR RAPIDS   PTSUNNY   63  50  62 NW18      30.18S
CHARLES CITY * CLOUDY    55  50  82 NW10G17   30.20S
CLINTON *      PTSUNNY   66  50  56 W17G23    30.17R
DECORAH *      CLOUDY    55  50  82 VRB7G14   30.15S
DUBUQUE        CLOUDY    60  48  64 W16G23    30.16S
MONTICELLO *   CLOUDY    61  48  63 NW16G22   30.17R
OELWEIN *      CLOUDY    57  48  72 NW16G22   30.19S
WATERLOO       CLOUDY    58  46  64 NW13      30.19S
$$

IAZ064-065-067-068-078-251700-
   EAST CENTRAL IOWA

CITY           SKY/WX    TMP DP  RH WIND       PRES   REMARKS
DAVENPORT      MOSUNNY   66  48  52 NW16      30.18S
IOWA CITY      PTSUNNY   67  48  50 W17       30.20S
MT. PLEASANT * MOSUNNY   68  45  43 W9G20     30.21S
MUSCATINE *    SUNNY     68  45  42 NW16G23   30.20S
QUAD CITIES    MOSUNNY   68  48  48 W15G28    30.17S
$$

IAZ062-063-075>077-085>089-095>099-251700-
   SOUTHEAST IOWA

CITY           SKY/WX    TMP DP  RH WIND       PRES   REMARKS
BURLINGTON     MOSUNNY   69  47  45 NW13G24   30.20S
FAIRFIELD *    MOSUNNY   68  45  42 NW17G30   30.21S
FORT MADISON * MOSUNNY   70  46  43 NW12G23   30.22S
KEOKUK *       SUNNY     70  45  40 W14G24    30.21S
OSKALOOSA *      N/A     65  46  48 NW22G28   30.24R
CENTERVILLE *    N/A     66  46  48 NW14G23   30.27S
OTTUMWA        MOSUNNY   69  46  43 NW17G28   30.23R
WASHINGTON *   PTSUNNY   66  46  48 W23       30.22R
$$

ABBREVIATIONS USED IN REMARKS
   TC - TEMPERATURES IN CELSIUS
  WCI - WIND CHILL INDEX
   HX - HEAT INDEX
  VSB - VISIBILITY
$$





USA.gov is the U.S. government's official web portal to all federal, state and local government web resources and services.